Cedar Springs

*Note: All times are displayed in the local standard time of the station location.
**Rain - Equipment is designed to accurately record liquid precipitation; under conditions when precipitation is not in liquid form, the data displayed may not properly reflect rainfall values.

Date Max Temp
(°C)
Min Temp
(°C)
Avg Temp
(°C)
Rain (mm) Avg RH (%) Solar Rad (kJ/m2)
Thu, Nov 15, 2018 3.8 -2.1 2.4 11.2 91.5 541.5
Wed, Nov 14, 2018 -0.3 -7.5 -3.2 0.0 77.1 5193.9
Tue, Nov 13, 2018 2.6 -3.3 0.1 1.4 93.0 3363.4
Mon, Nov 12, 2018 4.8 -0.9 2.4 0.6 80.4 1598.3
Sun, Nov 11, 2018 3.6 -1.5 1.2 0.0 86.3 3615.0
Sat, Nov 10, 2018 1.4 -4.4 -0.9 0.0 89.0 3088.9
Fri, Nov 09, 2018 6.2 -0.6 3.9 6.0 94.4 862.6
DateTime Avg Temp (°C) Rain (mm) RH (%) Solar Rad (kJ/m2)
Fri, Nov 16, 2018 08:00 0.5 0.0 100.0 7.7
Fri, Nov 16, 2018 07:00 0.5 0.0 100.0 0.0
Fri, Nov 16, 2018 06:00 0.8 0.0 100.0 0.0
Fri, Nov 16, 2018 05:00 0.6 0.0 100.0 0.0
Fri, Nov 16, 2018 04:00 0.7 0.0 100.0 0.0
Fri, Nov 16, 2018 03:00 1.0 0.0 100.0 0.0
Fri, Nov 16, 2018 02:00 1.6 0.0 100.0 0.0
Fri, Nov 16, 2018 01:00 2.1 0.0 100.0 0.0
Fri, Nov 16, 2018 00:00 2.0 0.0 100.0 0.0
Thu, Nov 15, 2018 23:00 2.1 0.2 100.0 0.0
Thu, Nov 15, 2018 22:00 3.1 0.2 100.0 0.0
Thu, Nov 15, 2018 21:00 3.7 0.8 100.0 0.0
Thu, Nov 15, 2018 20:00 3.7 0.6 100.0 0.0
Thu, Nov 15, 2018 19:00 3.6 0.2 100.0 0.0
Thu, Nov 15, 2018 18:00 3.6 1.2 100.0 0.0
Thu, Nov 15, 2018 17:00 3.6 1.0 99.8 10.6
Thu, Nov 15, 2018 16:00 3.5 0.8 99.0 46.6
Thu, Nov 15, 2018 15:00 3.1 1.6 97.5 78.0
Thu, Nov 15, 2018 14:00 2.9 1.6 95.8 84.9
Thu, Nov 15, 2018 13:00 2.4 1.2 93.8 75.5
Thu, Nov 15, 2018 12:00 1.9 1.4 91.0 66.6
Thu, Nov 15, 2018 11:00 1.7 0.4 87.5 64.6
Thu, Nov 15, 2018 10:00 2.5 0.0 83.8 69.7
Thu, Nov 15, 2018 09:00 2.5 0.0 82.8 39.4
Thu, Nov 15, 2018 08:00 2.8 0.0 81.5 5.6
Thu, Nov 15, 2018 07:00 2.9 0.0 81.0 0.0
Thu, Nov 15, 2018 06:00 2.2 0.0 81.8 0.0
Thu, Nov 15, 2018 05:00 2.0 0.0 83.0 0.0
Thu, Nov 15, 2018 04:00 1.8 0.0 84.0 0.0
Thu, Nov 15, 2018 03:00 1.9 0.0 85.0 0.0
Thu, Nov 15, 2018 02:00 1.0 0.0 85.0 0.0
Thu, Nov 15, 2018 01:00 -1.9 0.0 84.5 0.0
Thu, Nov 15, 2018 00:00 -2.2 0.0 83.3 0.0
Wed, Nov 14, 2018 23:00 -2.7 0.0 82.8 0.0
Wed, Nov 14, 2018 22:00 -2.9 0.0 81.5 0.0
Wed, Nov 14, 2018 21:00 -3.0 0.0 79.0 0.0
Wed, Nov 14, 2018 20:00 -3.2 0.0 76.8 0.0
Wed, Nov 14, 2018 19:00 -2.8 0.0 73.5 0.0
Wed, Nov 14, 2018 18:00 -2.3 0.0 70.3 1.3
Wed, Nov 14, 2018 17:00 -1.6 0.0 67.3 77.0
Wed, Nov 14, 2018 16:00 -1.0 0.0 67.0 278.8
Wed, Nov 14, 2018 15:00 -0.6 0.0 68.0 541.3
Wed, Nov 14, 2018 14:00 -0.9 0.0 69.3 635.6
Wed, Nov 14, 2018 13:00 -0.9 0.0 71.3 903.1
Wed, Nov 14, 2018 12:00 -1.4 0.0 74.5 920.8
Wed, Nov 14, 2018 11:00 -1.9 0.0 77.5 859.0
Wed, Nov 14, 2018 10:00 -2.5 0.0 80.8 616.4
Wed, Nov 14, 2018 09:00 -4.0 0.0 85.0 316.3


asterix Register now to access more data! asterix